Weather History for Bishop, CA

Change the Weather History Date:

Saturday, August 17, 2013

  Actual Average Record
Temperature  
Mean Temperature 79 °F 75 °F  
Max Temperature 100 °F 96 °F 104 °F (2002)
Min Temperature 58 °F 54 °F 46 °F (1954)
Degree Days  
Heating Degree Days 0 0  
Month to date heating degree days 0 0  
Since 1 June heating degree days 0 20  
Since 1 July heating degree days 0 1  
Cooling Degree Days 14 10  
Month to date cooling degree days 151 191  
Year to date cooling degree days 1022 855  
Since 1 June cooling degree days 936 787  
Growing Degree Days 28 (Base 50)    
Moisture  
Dew Point 39 °F    
Average Humidity 26    
Maximum Humidity 40    
Minimum Humidity 12    
Precipitation  
Precipitation 0.00 in 0.00 in 0.43 in (1977)
Month to date precipitation 0.00 0.07  
Year to date precipitation 0.95 3.31  
Snow  
Snow 0.00 in 0.00 in - ()
Month to date snowfall 0.0 0.0  
Since 1 June snowfall 0.0 0.0  
Since 1 July snowfall 0.0 0.0  
Snow Depth 0.00 in    
Sea Level Pressure  
Sea Level Pressure 29.86 in    
Wind  
Wind Speed 7 mph (West)    
Max Wind Speed 23 mph    
Max Gust Speed 31 mph    
Visibility 10 miles    
Events Thunderstorm    
T = Trace of Precipitation, MM = Missing Value Source: NWS Daily Summary

Daily Weather History Graph

Daily Weather History Graph

Search for Another Location

Airport:

Trip Planner

Search our weather history database for the weather conditions in past years. The results will help you decide how hot, cold, wet, or windy it might be!

Date:

Astronomy

Aug. 17, 2013 Rise Set
Actual Time 6:11 AM PDT 7:42 PM PDT
Civil Twilight 5:43 AM PDT 8:10 PM PDT
Nautical Twilight 5:10 AM PDT 8:43 PM PDT
Astronomical Twilight 4:35 AM PDT 9:18 PM PDT
Moon 5:00 PM PDT (8/17) 2:22 AM PDT (8/17)
Length of Visible Light 14h 26m
Length of Day
13h 30m
Waxing Gibbous, 85% of the Moon is Illuminated
Aug 17
Waxing Gibbous
Aug 20
Full
Aug 28
Last Quarter
Sep 5
New
Sep 12
First Quarter

Hourly Weather History & Observations

Time (PDT) Temp. Dew Point Humidity Pressure Visibility Wind Dir Wind Speed Gust Speed Precip Events Conditions
12:56 AM 72.0 °F 39.9 °F 31% 29.89 in 10.0 mi North 6.9 mph - N/A   Clear
1:56 AM 66.9 °F 39.0 °F 36% 29.90 in 10.0 mi NE 3.5 mph - N/A   Clear
2:56 AM 66.9 °F 39.0 °F 36% 29.90 in 10.0 mi NNW 3.5 mph - N/A   Clear
3:56 AM 64.9 °F 39.0 °F 39% 29.90 in 10.0 mi NW 3.5 mph - N/A   Clear
4:56 AM 64.9 °F 37.9 °F 37% 29.90 in 10.0 mi NW 5.8 mph - N/A   Clear
5:56 AM 64.0 °F 39.0 °F 40% 29.91 in 10.0 mi NW 6.9 mph - N/A   Clear
6:56 AM 62.1 °F 37.0 °F 39% 29.94 in 10.0 mi NW 5.8 mph - N/A   Clear
7:56 AM 72.0 °F 37.0 °F 28% 29.93 in 10.0 mi West 4.6 mph - N/A   Clear
8:56 AM 80.1 °F 35.1 °F 20% 29.93 in 10.0 mi North 4.6 mph - N/A   Clear
9:56 AM 87.1 °F 30.0 °F 13% 29.91 in 10.0 mi NNW 3.5 mph - N/A   Clear
10:56 AM 89.1 °F 35.1 °F 15% 29.90 in 10.0 mi SSE 8.1 mph - N/A   Clear
11:56 AM 91.0 °F 39.0 °F 16% 29.87 in 10.0 mi Variable 6.9 mph - N/A   Clear
12:56 PM 96.1 °F 39.0 °F 14% 29.83 in 10.0 mi SSE 10.4 mph 18.4 mph N/A   Clear
1:56 PM 98.1 °F 37.9 °F 12% 29.80 in 10.0 mi SSE 20.7 mph 27.6 mph N/A   Clear
2:56 PM 97.0 °F 35.1 °F 11% 29.78 in 10.0 mi South 20.7 mph 29.9 mph N/A   Clear
3:11 PM 96.8 °F 35.6 °F 12% 29.94 in 10.0 mi SSE 20.7 mph 28.8 mph N/A Thunderstorm Clear
3:49 PM 96.8 °F 37.4 °F 13% 29.93 in 10.0 mi SSE 17.3 mph 29.9 mph N/A   Clear
3:56 PM 96.1 °F 37.9 °F 13% 29.77 in 10.0 mi South 18.4 mph 26.5 mph N/A   Clear
4:56 PM 91.0 °F 41.0 °F 17% 29.78 in 10.0 mi SSE 11.5 mph - N/A   Clear
5:56 PM 91.0 °F 42.1 °F 18% 29.76 in 10.0 mi SSE 10.4 mph - N/A   Clear
6:56 PM 91.0 °F 39.9 °F 17% 29.77 in 10.0 mi WSW 5.8 mph - N/A   Clear
7:56 PM 86.0 °F 41.0 °F 20% 29.78 in 10.0 mi Calm Calm - N/A   Clear
8:56 PM 82.9 °F 44.1 °F 25% 29.80 in 10.0 mi WNW 5.8 mph - N/A   Clear
9:56 PM 78.1 °F 48.0 °F 35% 29.81 in 10.0 mi West 5.8 mph - N/A   Clear
10:56 PM 75.9 °F 46.0 °F 35% 29.83 in 10.0 mi North 5.8 mph - N/A   Clear
11:56 PM 70.0 °F 45.0 °F 41% 29.84 in 10.0 mi SW 3.5 mph - N/A   Clear